Location: Newark
(49.8969°N, 3.3422°E)
Time: 01:50:52
(UTC+00:00)

A-11 Canister half - Pass Details

Date: 24 January 2020
Orbit: 1517 x 1683 km, 47.2° (Epoch: 26 February)

Event Time Altitude Azimuth Distance (km) Brightness Sun altitude
Exits shadow 03:26:08 63° 132° (SE) 1,663 9.1 -38.9°
Drops below altitude 10° 03:33:52 10° 106° (ESE) 3,700 11.6 -37.7°
Sets 03:36:56 0° 104° (ESE) 4,695 12.3 -37.3°
